[[{"header":{"parameterUnit":"m.s-1","parameterCategory":1,"la1":30.2992,"la2":30.254,"lo1":-89.0895,"lo2":-89.0443,"dy":0.0025,"dx":0.0025,"nx":19,"ny":19,"refTime":"2026-05-01T09:00:00:Z","depth":0,"parameterNumber":2,"parameterNumberName":"U-component_of_WINDS"},"data":[0,0,0,-2.6193,-2.6192,-2.6138,-2.6138,-2.6095,-2.6095,0,0,0,0,0,0,0,0,0,0,0,-2.6229,-2.6229,-2.6193,-2.6192,-2.6138,-2.6138,-2.6095,-2.6095,0,0,0,0,0,0,0,0,0,0,0,-2.6228,-2.6229,-2.6229,-2.6192,-2.6138,-2.6138,-2.6095,-2.6126,0,0,0,0,0,0,0,0,0,0,-2.6174,-2.6226,-2.6229,-2.6229,-2.6192,-2.6138,-2.6138,-2.6127,-2.6124,-2.6132,0,-2.6147,0,-2.6121,-2.6094,-2.6094,0,0,0,-2.6177,-2.6229,-2.6197,-2.623,-2.6192,-2.6139,-2.6158,-2.6125,-2.6122,-2.6128,-2.6146,-2.6144,-2.612,-2.6094,-2.6094,-2.6195,-2.6196,0,0,-2.618,-2.6229,-2.6199,-2.6196,-2.6209,-2.616,-2.6157,-2.6122,-2.6144,-2.6146,-2.6142,-2.6119,-2.6094,-2.6094,-2.6194,-2.6195,0,0,0,-2.6199,-2.6232,-2.62,-2.6198,-2.6187,-2.6159,-2.6155,-2.6146,-2.6131,-2.6142,-2.6119,-2.6094,-2.6094,-2.6192,-2.6194,-2.6299,0,0,0,-2.62,-2.6243,-2.6202,-2.6231,-2.6188,-2.6166,-2.618,-2.6134,-2.6128,-2.6119,-2.6094,-2.6094,-2.6191,-2.6193,-2.6293,-2.634,0,0,0,-2.6225,-2.6245,-2.6244,-2.6234,-2.6213,-2.6166,-2.6149,-2.6131,-2.6115,-2.6094,-2.6094,-2.619,-2.6193,-2.6288,-2.6331,-2.6378,0,0,0,-2.6266,-2.634,-2.6247,-2.632,-2.6214,-2.6232,-2.6149,-2.616,-2.6155,-2.6094,-2.6191,-2.6194,-2.6286,-2.6326,-2.6373,-2.6425,-2.6452,0,0,-2.6386,-2.6356,-2.6395,-2.631,-2.6358,-2.6237,-2.6298,-2.6247,-2.6199,-2.6198,-2.62,-2.6295,-2.6331,-2.6377,-2.659,-2.6612,0,0,0,-2.6449,-2.6477,-2.6479,-2.6476,-2.6439,-2.6409,-2.6343,-2.6323,-2.6319,-2.621,-2.6324,-2.6344,-2.6369,-2.6391,-2.6409,-2.6426,-2.6207,-2.6207,-2.6206,-2.6688,-2.6623,-2.6681,-2.6609,-2.6607,-2.6537,-2.6527,-2.6487,-2.6424,-2.6451,-2.645,-2.6588,-2.6616,-2.6629,-2.6647,-2.6474,-2.6474,-2.6475,-2.6475,-2.6856,-2.6884,-2.6795,-2.6819,-2.6748,-2.6767,-2.6699,-2.6653,-2.6656,-2.6584,-2.6603,-2.6528,-2.6656,-2.6667,-2.6482,-2.6481,-2.648,-2.6479,-2.6479,-2.7004,-2.7005,-2.698,-2.6966,-2.6962,-2.6885,-2.6893,-2.6828,-2.6767,-2.6786,-2.6775,-2.6773,-2.676,-2.6786,-2.6786,-2.6787,-2.6787,-2.6787,-2.6788,-2.7167,-2.7134,-2.715,-2.7114,-2.7101,-2.7076,-2.7002,-2.6987,-2.6952,-2.6904,-2.6904,-2.6834,-2.6682,-2.6643,-2.6795,-2.6793,-2.6793,-2.6792,-2.6791,-2.7357,-2.7303,-2.7327,-2.7315,-2.7263,-2.7261,-2.7178,-2.7151,-2.7129,-2.7133,-2.7058,-2.6957,-2.6921,-2.6906,-2.6873,-2.7075,-2.7075,-2.7075,-2.7075,-2.748,-2.7455,-2.7463,-2.7446,-2.7422,-2.7349,-2.7372,-2.7313,-2.7244,-2.7224,-2.7186,-2.7138,-2.7125,-2.7096,-2.7077,-2.7045,-2.7286,-2.7286,-2.7287,-2.7591,-2.7561,-2.7596,-2.7529,-2.7483,-2.7444,-2.7463,-2.7443,-2.7353,-2.7294,-2.7207,-2.7198,-2.7119,-2.7098,-2.7037,-2.7009,-2.6949,0,0]},{"header":{"parameterUnit":"m.s-1","parameterCategory":1,"la1":30.2992,"la2":30.254,"lo1":-89.0895,"lo2":-89.0443,"dy":0.0025,"dx":0.0025,"nx":19,"ny":19,"refTime":"2026-05-01T09:00:00:Z","depth":0,"parameterNumber":3,"parameterNumberName":"V-component_of_WINDS"},"data":[0,0,0,-4.0451,-4.0448,-4.0299,-4.0298,-4.0111,-4.0109,0,0,0,0,0,0,0,0,0,0,0,-4.0507,-4.0506,-4.0452,-4.0448,-4.0299,-4.0298,-4.0111,-4.0109,0,0,0,0,0,0,0,0,0,0,0,-4.0507,-4.0507,-4.0506,-4.0448,-4.0299,-4.0298,-4.0111,-4.0221,0,0,0,0,0,0,0,0,0,0,-4.0364,-4.043,-4.0507,-4.0506,-4.0447,-4.0299,-4.0298,-4.0226,-4.0214,-4.0183,0,-4.0167,0,-4.0135,-4.0098,-4.0097,0,0,0,-4.0438,-4.044,-4.039,-4.0506,-4.0446,-4.0299,-4.0363,-4.0219,-4.0206,-4.0167,-4.0164,-4.0156,-4.0132,-4.0097,-4.0096,-3.9968,-3.9967,0,0,-4.0446,-4.0485,-4.0399,-4.0382,-4.0415,-4.0368,-4.0359,-4.0211,-4.0206,-4.0163,-4.0152,-4.0129,-4.0096,-4.0094,-3.9968,-3.9968,0,0,0,-4.0477,-4.0491,-4.0444,-4.039,-4.0363,-4.0364,-4.0353,-4.0213,-4.0195,-4.015,-4.0127,-4.0095,-4.0092,-3.9968,-3.9968,-4.0001,0,0,0,-4.0481,-4.0509,-4.0448,-4.0471,-4.0366,-4.0288,-4.0359,-4.0205,-4.0187,-4.0128,-4.0094,-4.0091,-3.9968,-3.9968,-4.0,-4.0009,0,0,0,-4.0513,-4.0513,-4.0496,-4.0473,-4.0411,-4.029,-4.0263,-4.02,-4.0174,-4.0097,-4.009,-3.9968,-3.9968,-4.0,-4.0008,-3.9983,0,0,0,-4.0556,-4.0528,-4.0497,-4.0455,-4.0413,-4.0314,-4.0263,-4.0186,-4.0125,-4.0094,-3.9968,-3.9968,-3.9999,-4.0007,-3.9983,-3.9969,-3.9968,0,0,-4.0541,-4.0527,-4.0499,-4.0467,-4.0385,-4.0334,-4.0252,-4.0156,-4.011,-4.0015,-4.0011,-4.0,-4.0008,-3.9983,-3.9952,-3.9952,0,0,0,-4.0507,-4.0487,-4.0456,-4.0402,-4.0331,-4.0267,-4.0181,-4.0143,-4.0061,-4.0073,-3.9985,-3.9988,-3.9972,-3.9963,-3.9962,-3.9943,-3.9966,-3.9966,-3.9966,-4.0542,-4.0487,-4.0433,-4.0359,-4.0305,-4.0214,-4.0162,-4.0094,-4.0054,-4.0033,-4.0004,-3.9993,-3.9985,-3.9984,-3.9964,-3.9994,-3.9994,-3.9994,-3.9995,-4.0512,-4.0473,-4.0417,-4.0347,-4.0284,-4.022,-4.0126,-4.0098,-4.0023,-4.0012,-3.9995,-3.9985,-3.9986,-3.9964,-3.9996,-3.9996,-3.9996,-3.9996,-3.9996,-4.0527,-4.0498,-4.0456,-4.0367,-4.0302,-4.0223,-4.0154,-4.01,-4.0046,-4.003,-3.9989,-3.9988,-3.9976,-4.0014,-4.0014,-4.0014,-4.0014,-4.0014,-4.0014,-4.0559,-4.051,-4.0463,-4.038,-4.0334,-4.0266,-4.0168,-4.0118,-4.0047,-4.0011,-4.001,-3.9966,-3.9998,-4.0006,-4.0013,-4.0013,-4.0014,-4.0014,-4.0014,-4.0546,-4.0539,-4.0467,-4.0421,-4.0314,-4.0249,-4.0179,-4.008,-4.003,-3.9995,-3.9952,-3.9987,-3.9967,-3.9966,-3.9972,-3.997,-3.997,-3.997,-3.997,-4.0557,-4.0542,-4.0451,-4.038,-4.0303,-4.0231,-4.0137,-4.0056,-3.997,-3.9932,-3.9924,-3.9927,-3.9929,-3.9907,-3.9908,-3.9912,-3.9895,-3.9894,-3.9894,-4.0543,-4.0517,-4.0455,-4.0377,-4.0287,-4.0208,-4.0117,-4.0027,-3.9927,-3.989,-3.99,-3.9903,-3.9907,-3.9912,-3.9877,-3.988,-3.9886,0,0]}]]